Location: Leiter
(44.7178°N, 106.2687°W)
Time: 01:15:12
(UTC+00:00)

CUTE 1.7 + AOD 2 - Pass Details

Date: 03 July 2022
Orbit: 589 x 608 km, 97.7° (Epoch: 08 August)

Event Time Altitude Azimuth Distance (km) Brightness Sun altitude
Rises 10:31:14 0° 19° (NNE) 2,849 ? -8.2°
Reaches altitude 10° 10:33:31 10° 27° (NNE) 1,938 ? -7.9°
Maximum altitude 10:37:30 40° 98° (E) 880 ? -7.4°
Drops below altitude 10° 10:41:25 10° 168° (SSE) 1,914 ? -6.9°
Sets 10:43:40 0° 176° (S) 2,808 ? -6.6°
